• In Hungary
  • List of Countries
  • For 7 days
  • Water Temperature
  • Satellite Maps
  • Weather Map
  • News
  • Weather Widgets
  • user-avatar
    Login

    Hourly Weather Chaschino

    Today, 20 September, Thursday

    Time Temperature Precipitation Wind Pressure Humidity
    00:00 +15°C° 0 mm 4 mps 749 mmHg 80%
    01:00 +14°C° 0 mm 4 mps 749 mmHg 83%
    02:00 +14°C° 0 mm 4 mps 749 mmHg 86%
    03:00 +13°C° 0 mm 3 mps 749 mmHg 91%
    04:00 +13°C° 0 mm 3 mps 749 mmHg 92%
    05:00 +13°C° 0 mm 3 mps 749 mmHg 93%
    06:00 +13°C° 0 mm 3 mps 749 mmHg 94%
    07:00 +14°C° 0 mm 3 mps 749 mmHg 87%
    08:00 +17°C° 0 mm 4 mps 749 mmHg 81%
    09:00 +19°C° 0 mm 4 mps 749 mmHg 75%
    10:00 +21°C° 0 mm 5 mps 749 mmHg 69%
    11:00 +22°C° 0 mm 5 mps 749 mmHg 63%
    12:00 +24°C° 0 mm 6 mps 749 mmHg 58%
    13:00 +24°C° 0 mm 6 mps 749 mmHg 56%
    14:00 +26°C° 0 mm 6 mps 749 mmHg 54%
    15:00 +26°C° 0 mm 6 mps 748 mmHg 53%
    16:00 +25°C° 0 mm 5 mps 748 mmHg 58%
    17:00 +23°C° 0 mm 4 mps 748 mmHg 64%
    18:00 +22°C° 0 mm 3 mps 748 mmHg 69%
    19:00 +21°C° 0 mm 3 mps 748 mmHg 73%
    20:00 +20°C° 0 mm 3 mps 748 mmHg 77%
    21:00 +19°C° 0 mm 3 mps 748 mmHg 80%
    22:00 +19°C° 0 mm 3 mps 749 mmHg 83%
    23:00 +18°C° 0 mm 3 mps 749 mmHg 87%

    Tomorrow, 21 September, Friday

    Time Temperature Precipitation Wind Pressure Humidity
    00:00 +18°C° 0 mm 3 mps 749 mmHg 90%
    01:00 +17°C° 0 mm 3 mps 749 mmHg 91%
    02:00 +16°C° 0 mm 3 mps 749 mmHg 92%
    03:00 +16°C° 0 mm 3 mps 749 mmHg 93%
    04:00 +14°C° 0 mm 3 mps 750 mmHg 93%
    05:00 +13°C° 0 mm 3 mps 750 mmHg 94%
    06:00 +13°C° 0 mm 3 mps 750 mmHg 94%
    07:00 +14°C° 0 mm 3 mps 751 mmHg 86%
    08:00 +16°C° 0 mm 3 mps 751 mmHg 78%
    09:00 +18°C° 0 mm 3 mps 752 mmHg 70%
    10:00 +19°C° 0 mm 3 mps 752 mmHg 64%
    11:00 +20°C° 0 mm 3 mps 752 mmHg 57%
    12:00 +22°C° 0 mm 3 mps 752 mmHg 51%
    13:00 +22°C° 0 mm 3 mps 752 mmHg 50%
    14:00 +24°C° 0 mm 3 mps 752 mmHg 49%
    15:00 +24°C° 0 mm 3 mps 752 mmHg 48%
    16:00 +22°C° 0 mm 3 mps 752 mmHg 53%
    17:00 +21°C° 0 mm 2 mps 752 mmHg 58%
    18:00 +20°C° 0 mm 2 mps 752 mmHg 63%
    19:00 +20°C° 0 mm 1 mps 753 mmHg 66%
    20:00 +19°C° 0 mm 1 mps 753 mmHg 69%
    21:00 +18°C° 0 mm 1 mps 753 mmHg 72%
    22:00 +18°C° 0 mm 1 mps 753 mmHg 74%
    23:00 +16°C° 0 mm 1 mps 753 mmHg 76%

    Day after tomorrow, 22 September, Saturday

    Time Temperature Precipitation Wind Pressure Humidity
    00:00 +16°C° 0 mm 1 mps 754 mmHg 78%
    01:00 +16°C° 0 mm 1 mps 754 mmHg 79%
    02:00 +15°C° 0 mm 1 mps 754 mmHg 81%
    03:00 +15°C° 0 mm 1 mps 754 mmHg 82%
    04:00 +15°C° 0 mm 1 mps 754 mmHg 84%
    05:00 +14°C° 0 mm 1 mps 754 mmHg 85%
    06:00 +14°C° 0 mm 1 mps 754 mmHg 86%
    07:00 +16°C° 0 mm 1 mps 754 mmHg 80%
    08:00 +17°C° 0 mm 2 mps 754 mmHg 73%
    09:00 +19°C° 0 mm 2 mps 754 mmHg 67%
    10:00 +20°C° 0 mm 2 mps 754 mmHg 62%
    11:00 +21°C° 0 mm 2 mps 754 mmHg 57%
    12:00 +24°C° 0 mm 2 mps 754 mmHg 52%
    13:00 +24°C° 0 mm 3 mps 754 mmHg 50%
    14:00 +25°C° 0 mm 3 mps 753 mmHg 48%
    15:00 +25°C° 0 mm 3 mps 753 mmHg 46%
    16:00 +24°C° 0 mm 3 mps 753 mmHg 51%
    17:00 +22°C° 0 mm 3 mps 752 mmHg 56%
    18:00 +20°C° 0 mm 2 mps 752 mmHg 60%
    19:00 +20°C° 0 mm 3 mps 752 mmHg 63%
    20:00 +19°C° 0 mm 3 mps 752 mmHg 65%
    21:00 +18°C° 0 mm 3 mps 752 mmHg 67%
    22:00 +17°C° 0 mm 3 mps 752 mmHg 69%
    23:00 +17°C° 0 mm 3 mps 752 mmHg 70%

    23 September, Sunday

    Time Temperature Precipitation Wind Pressure Humidity
    00:00 +17°C° 0 mm 3 mps 752 mmHg 71%
    01:00 +15°C° 0 mm 4 mps 751 mmHg 71%
    02:00 +15°C° 0 mm 4 mps 751 mmHg 72%
    03:00 +15°C° 0 mm 4 mps 751 mmHg 73%
    04:00 +14°C° 0 mm 4 mps 750 mmHg 73%
    05:00 +14°C° 0 mm 4 mps 750 mmHg 73%
    06:00 +14°C° 0 mm 4 mps 750 mmHg 74%
    07:00 +16°C° 0 mm 5 mps 749 mmHg 68%
    08:00 +17°C° 0 mm 6 mps 749 mmHg 62%
    09:00 +20°C° 0 mm 6 mps 748 mmHg 57%
    10:00 +21°C° 0 mm 7 mps 748 mmHg 52%
    11:00 +23°C° 0 mm 7 mps 747 mmHg 47%
    12:00 +26°C° 0 mm 8 mps 746 mmHg 43%
    13:00 +26°C° 0 mm 8 mps 746 mmHg 42%
    14:00 +26°C° 0 mm 8 mps 745 mmHg 41%
    15:00 +26°C° 0 mm 8 mps 745 mmHg 41%
    16:00 +23°C° 0.7 mm 7 mps 745 mmHg 50%
    17:00 +21°C° 0.7 mm 6 mps 745 mmHg 60%
    18:00 +19°C° 0.7 mm 6 mps 745 mmHg 69%
    19:00 +16°C° 2 mm 6 mps 745 mmHg 75%
    20:00 +14°C° 2 mm 6 mps 746 mmHg 80%
    21:00 +11°C° 2 mm 6 mps 746 mmHg 86%
    22:00 +10°C° 1.3 mm 6 mps 746 mmHg 84%
    23:00 +10°C° 1.3 mm 5 mps 747 mmHg 83%

    24 September, Monday

    Time Temperature Precipitation Wind Pressure Humidity
    00:00 +10°C° 1.3 mm 5 mps 747 mmHg 81%
    01:00 +10°C° 0 mm 4 mps 747 mmHg 82%
    02:00 +10°C° 0 mm 4 mps 748 mmHg 82%
    03:00 +10°C° 0 mm 3 mps 748 mmHg 83%
    04:00 +9°C° 0 mm 3 mps 748 mmHg 85%
    05:00 +9°C° 0 mm 3 mps 749 mmHg 88%
    06:00 +9°C° 0 mm 3 mps 749 mmHg 90%
    07:00 +10°C° 0 mm 2 mps 749 mmHg 84%
    08:00 +12°C° 0 mm 2 mps 749 mmHg 78%
    09:00 +14°C° 0 mm 2 mps 749 mmHg 72%
    10:00 +14°C° 0 mm 3 mps 749 mmHg 65%
    11:00 +16°C° 0 mm 3 mps 749 mmHg 58%
    12:00 +17°C° 0 mm 3 mps 749 mmHg 51%
    13:00 +18°C° 0 mm 3 mps 749 mmHg 49%
    14:00 +18°C° 0 mm 3 mps 749 mmHg 47%
    15:00 +18°C° 0 mm 3 mps 749 mmHg 45%
    16:00 +17°C° 0 mm 3 mps 748 mmHg 49%
    17:00 +16°C° 0 mm 3 mps 748 mmHg 53%
    18:00 +14°C° 0 mm 3 mps 747 mmHg 57%
    19:00 +14°C° 0 mm 4 mps 747 mmHg 56%
    20:00 +14°C° 0 mm 4 mps 747 mmHg 55%
    21:00 +14°C° 0 mm 5 mps 746 mmHg 54%
    22:00 +14°C° 0 mm 5 mps 746 mmHg 52%
    23:00 +14°C° 0 mm 6 mps 745 mmHg 50%

    25 September, Tuesday

    Time Temperature Precipitation Wind Pressure Humidity
    00:00 +14°C° 0 mm 6 mps 745 mmHg 47%
    01:00 +14°C° 0 mm 6 mps 744 mmHg 47%
    02:00 +14°C° 0 mm 6 mps 744 mmHg 46%
    03:00 +14°C° 0 mm 7 mps 743 mmHg 45%
    04:00 +14°C° 0.1 mm 7 mps 743 mmHg 46%
    05:00 +12°C° 0.1 mm 7 mps 743 mmHg 48%
    06:00 +12°C° 0.1 mm 7 mps 742 mmHg 49%
    07:00 +11°C° 1.4 mm 7 mps 743 mmHg 60%
    08:00 +10°C° 1.4 mm 6 mps 743 mmHg 71%
    09:00 +10°C° 1.4 mm 6 mps 744 mmHg 81%
    10:00 +11°C° 0.1 mm 6 mps 744 mmHg 76%
    11:00 +11°C° 0.1 mm 6 mps 745 mmHg 71%
    12:00 +13°C° 0.1 mm 6 mps 745 mmHg 66%
    13:00 +13°C° 0 mm 5 mps 746 mmHg 63%
    14:00 +13°C° 0 mm 5 mps 746 mmHg 60%
    15:00 +14°C° 0 mm 5 mps 747 mmHg 57%
    16:00 +13°C° 0 mm 4 mps 747 mmHg 60%
    17:00 +12°C° 0 mm 3 mps 748 mmHg 62%
    18:00 +12°C° 0 mm 2 mps 748 mmHg 65%
    19:00 +10°C° 0 mm 2 mps 749 mmHg 67%
    20:00 +9°C° 0 mm 2 mps 749 mmHg 68%
    21:00 +9°C° 0 mm 2 mps 750 mmHg 69%
    22:00 +8°C° 0 mm 2 mps 750 mmHg 70%
    23:00 +8°C° 0 mm 2 mps 750 mmHg 70%
    Show more